{"data":{"norad_id":52268,"intl_designator":"2022-041H","name":"STARLINK-3746","alt_names":[],"object_type":"PAYLOAD","status":"ACTIVE","operator":null,"country":"US","launch_date":"2022-04-21","launch_site_code":"AFETR","launch_vehicle":null,"mission":null,"orbit_class":"UNKNOWN","rcs_meters":null,"size_class":null,"mass_kg":null,"dimensions":null,"purposes":["comms"],"wikipedia_slug":null,"has_3d_model":false,"image_url":null,"decayed_at":null,"tle_current":{"epoch":"2026-09-19T17:41:32.837568Z","epoch_age_seconds":125455,"freshness":"FRESH","line1":"1 52268U 22041H   26262.73718562 -.00000473  00000+0 -28619-5 0  9995","line2":"2 52268  53.1618 302.9876 0001338  83.6721 276.4434 15.34384099243865","mean_motion":15.34384099,"eccentricity":0.0001338,"inclination_deg":53.1618,"raan_deg":302.9876,"arg_perigee_deg":83.6721,"mean_anomaly_deg":276.4434,"bstar":-2.8619e-6,"rev_number":24386,"period_min":93.848730636513,"perigee_km":461.8351909905,"apogee_km":463.66581248596,"semimajor_km":6840.8875017382,"source":"CELESTRAK","updated_at":"2026-09-20T09:00:40.012150Z"}}}